BAW828Y EGLL-EIDW

Flight info

Callsign BAW828Y
Flight time 0h 48m
Altitude 34000
Route CPT L9 DIDZA N14 BIBPE DCT OKTAD DCT MEDOG DCT KRAGY DCT PEMOB DCT LEMGU M17 VATRY VATRY3R
Aircraft A320/M-SDE3FGHIRWY/LB1

Departure

Time 2026-05-03 22:30
Airport London Heathrow Airport (EGLL)

Arrival

Time 2026-05-03 23:18
Airport Dublin Airport (EIDW)
Time Latitude Longitude Altitude Speed Heading
2026-05-03 21:58 51.47188 -0.48589 86 ft 0 kts 269°
2026-05-03 22:18 51.47188 -0.48588 86 ft 1 kts 269°
2026-05-03 22:19 51.47188 -0.48550 86 ft 4 kts 269°
2026-05-03 22:19 51.47188 -0.48516 86 ft 4 kts 263°
2026-05-03 22:19 51.47196 -0.48481 86 ft 4 kts 211°
2026-05-03 22:19 51.47219 -0.48473 88 ft 4 kts 179°
2026-05-03 22:20 51.47227 -0.48473 86 ft 0 kts 179°
2026-05-03 22:21 51.47180 -0.48472 86 ft 10 kts 179°
2026-05-03 22:22 51.47096 -0.48471 87 ft 14 kts 179°
2026-05-03 22:22 51.46990 -0.48470 87 ft 17 kts 180°
2026-05-03 22:22 51.46863 -0.48470 87 ft 18 kts 180°
2026-05-03 22:22 51.46731 -0.48469 86 ft 17 kts 180°
2026-05-03 22:23 51.46652 -0.48387 86 ft 16 kts 93°
2026-05-03 22:23 51.46653 -0.48176 86 ft 22 kts 89°
2026-05-03 22:23 51.46655 -0.47915 86 ft 25 kts 90°
2026-05-03 22:23 51.46654 -0.47621 86 ft 28 kts 90°
2026-05-03 22:24 51.46655 -0.47336 86 ft 24 kts 90°
2026-05-03 22:24 51.46656 -0.47104 89 ft 21 kts 89°
2026-05-03 22:24 51.46657 -0.46860 91 ft 23 kts 90°
2026-05-03 22:24 51.46658 -0.46589 90 ft 25 kts 89°
2026-05-03 22:25 51.46659 -0.46302 88 ft 27 kts 90°
2026-05-03 22:25 51.46661 -0.46045 86 ft 23 kts 90°
2026-05-03 22:25 51.46661 -0.45788 86 ft 23 kts 90°
2026-05-03 22:25 51.46661 -0.45544 86 ft 20 kts 90°
2026-05-03 22:26 51.46662 -0.45314 86 ft 20 kts 90°
2026-05-03 22:26 51.46663 -0.45076 86 ft 22 kts 90°
2026-05-03 22:26 51.46664 -0.44816 87 ft 25 kts 89°
2026-05-03 22:26 51.46665 -0.44570 86 ft 23 kts 90°
2026-05-03 22:27 51.46666 -0.44345 86 ft 16 kts 90°
2026-05-03 22:27 51.46666 -0.44218 86 ft 8 kts 90°
2026-05-03 22:27 51.46666 -0.44201 86 ft 0 kts 90°
2026-05-03 22:28 51.46666 -0.44192 90 ft 4 kts 90°
2026-05-03 22:28 51.46666 -0.44113 89 ft 9 kts 90°
2026-05-03 22:28 51.46667 -0.43961 86 ft 16 kts 90°
2026-05-03 22:28 51.46667 -0.43770 86 ft 16 kts 90°
2026-05-03 22:29 51.46649 -0.43621 87 ft 13 kts 140°
2026-05-03 22:29 51.46553 -0.43604 87 ft 15 kts 179°
2026-05-03 22:29 51.46493 -0.43731 86 ft 18 kts 267°
2026-05-03 22:29 51.46492 -0.44161 86 ft 72 kts 269°
2026-05-03 22:30 51.46489 -0.45342 88 ft 133 kts 270°
2026-05-03 22:30 51.46488 -0.47017 379 ft 154 kts 269°
2026-05-03 22:30 51.46476 -0.48758 1029 ft 159 kts 268°
2026-05-03 22:30 51.46444 -0.50586 1554 ft 173 kts 268°
2026-05-03 22:31 51.46415 -0.52631 1913 ft 194 kts 269°
2026-05-03 22:31 51.46393 -0.54909 2311 ft 216 kts 269°
2026-05-03 22:31 51.46373 -0.57466 2756 ft 240 kts 270°
2026-05-03 22:31 51.46340 -0.60271 3396 ft 259 kts 268°
2026-05-03 22:32 51.46217 -0.63157 4330 ft 265 kts 262°
2026-05-03 22:32 51.45855 -0.66098 5317 ft 267 kts 256°
2026-05-03 22:32 51.45577 -0.69027 5809 ft 271 kts 264°
2026-05-03 22:32 51.45473 -0.72069 5965 ft 273 kts 266°
2026-05-03 22:33 51.45411 -0.75105 5999 ft 271 kts 267°
2026-05-03 22:33 51.45369 -0.78114 6003 ft 270 kts 268°
2026-05-03 22:33 51.45341 -0.81140 5999 ft 272 kts 268°
2026-05-03 22:33 51.45351 -0.84162 6303 ft 274 kts 275°
2026-05-03 22:34 51.45893 -0.87107 7274 ft 278 kts 293°
2026-05-03 22:34 51.46705 -0.89885 8212 ft 280 kts 294°
2026-05-03 22:34 51.47562 -0.92719 9142 ft 284 kts 294°
2026-05-03 22:34 51.48442 -0.95581 10030 ft 288 kts 294°
2026-05-03 22:35 51.49365 -0.98580 10407 ft 311 kts 294°
2026-05-03 22:35 51.50353 -1.01814 10681 ft 333 kts 294°
2026-05-03 22:35 51.51387 -1.05210 11272 ft 342 kts 294°
2026-05-03 22:35 51.52441 -1.08670 11989 ft 347 kts 294°
2026-05-03 22:36 51.53509 -1.12174 12669 ft 352 kts 294°
2026-05-03 22:36 51.54587 -1.15715 12895 ft 353 kts 294°
2026-05-03 22:36 51.55665 -1.19267 12947 ft 353 kts 294°
2026-05-03 22:36 51.56746 -1.22842 13393 ft 357 kts 293°
2026-05-03 22:37 51.57835 -1.26442 14171 ft 359 kts 293°
2026-05-03 22:37 51.58930 -1.30072 14868 ft 362 kts 293°
2026-05-03 22:37 51.60030 -1.33729 15540 ft 365 kts 293°
2026-05-03 22:37 51.61139 -1.37421 16198 ft 368 kts 293°
2026-05-03 22:38 51.62253 -1.41146 16856 ft 371 kts 293°
2026-05-03 22:38 51.63379 -1.44905 17531 ft 375 kts 293°
2026-05-03 22:38 51.64516 -1.48701 18204 ft 379 kts 293°
2026-05-03 22:38 51.65664 -1.52541 18825 ft 382 kts 293°
2026-05-03 22:39 51.66817 -1.56415 19473 ft 385 kts 292°
2026-05-03 22:39 51.67973 -1.60313 20136 ft 387 kts 292°
2026-05-03 22:39 51.69139 -1.64240 20783 ft 390 kts 292°
2026-05-03 22:39 51.70156 -1.68298 21399 ft 389 kts 283°
2026-05-03 22:40 51.70725 -1.72552 22003 ft 388 kts 274°
2026-05-03 22:40 51.71031 -1.76892 22600 ft 390 kts 273°
2026-05-03 22:40 51.71334 -1.81194 23177 ft 393 kts 273°
2026-05-03 22:40 51.71689 -1.85577 23704 ft 397 kts 277°
2026-05-03 22:41 51.72326 -1.89933 24158 ft 401 kts 280°
2026-05-03 22:41 51.72988 -1.94323 24614 ft 404 kts 280°
2026-05-03 22:41 51.73650 -1.98745 25028 ft 407 kts 280°
2026-05-03 22:41 51.74315 -2.03216 25443 ft 410 kts 280°
2026-05-03 22:42 51.74981 -2.07709 25848 ft 414 kts 280°
2026-05-03 22:42 51.75652 -2.12249 26266 ft 417 kts 280°
2026-05-03 22:42 51.76323 -2.16814 26678 ft 420 kts 280°
2026-05-03 22:42 51.76995 -2.21425 27073 ft 422 kts 280°
2026-05-03 22:43 51.77669 -2.26072 27468 ft 425 kts 280°
2026-05-03 22:43 51.78350 -2.30739 27862 ft 428 kts 280°
2026-05-03 22:43 51.79034 -2.35437 28233 ft 432 kts 280°
2026-05-03 22:43 51.79713 -2.40120 28581 ft 435 kts 280°
2026-05-03 22:44 51.80403 -2.44902 28963 ft 438 kts 281°
2026-05-03 22:44 51.81096 -2.49728 29299 ft 442 kts 280°
2026-05-03 22:44 51.81789 -2.54585 29666 ft 445 kts 280°
2026-05-03 22:44 51.82475 -2.59472 30025 ft 447 kts 280°
2026-05-03 22:45 51.83150 -2.64391 30333 ft 450 kts 280°
2026-05-03 22:45 51.83820 -2.69348 30638 ft 452 kts 279°
2026-05-03 22:45 51.84484 -2.74318 31039 ft 451 kts 279°
2026-05-03 22:45 51.85143 -2.79272 31477 ft 450 kts 279°
2026-05-03 22:46 51.85805 -2.84223 31935 ft 449 kts 279°
2026-05-03 22:46 51.86244 -2.87497 32217 ft 449 kts 279°
2026-05-03 22:46 51.86901 -2.92430 32669 ft 448 kts 280°
2026-05-03 22:46 51.87558 -2.97364 33084 ft 448 kts 280°
2026-05-03 22:47 51.88212 -3.02300 33509 ft 448 kts 280°
2026-05-03 22:47 51.88863 -3.07229 33894 ft 449 kts 280°
2026-05-03 22:47 51.89512 -3.12168 33957 ft 447 kts 280°
2026-05-03 22:48 51.90794 -3.21975 33965 ft 444 kts 279°
2026-05-03 22:48 51.92066 -3.31767 33965 ft 444 kts 279°
2026-05-03 22:49 51.93330 -3.41570 33959 ft 444 kts 279°
2026-05-03 22:49 51.94583 -3.51325 33961 ft 445 kts 279°
2026-05-03 22:50 51.95837 -3.61165 33965 ft 446 kts 279°
2026-05-03 22:50 51.97081 -3.71017 33960 ft 446 kts 279°
2026-05-03 22:51 51.98316 -3.80879 33964 ft 446 kts 279°
2026-05-03 22:51 51.99549 -3.90736 33964 ft 446 kts 279°
2026-05-03 22:52 52.00767 -4.00602 33959 ft 446 kts 280°
2026-05-03 22:52 52.01976 -4.10484 33957 ft 446 kts 279°
2026-05-03 22:53 52.03179 -4.20372 33962 ft 446 kts 279°
2026-05-03 22:53 52.04374 -4.30268 33959 ft 446 kts 279°
2026-05-03 22:54 52.05550 -4.40104 33954 ft 447 kts 279°
2026-05-03 22:54 52.06737 -4.50024 33961 ft 447 kts 280°
2026-05-03 22:55 52.07915 -4.59950 33960 ft 447 kts 279°
2026-05-03 22:55 52.09076 -4.69884 33959 ft 448 kts 279°
2026-05-03 22:56 52.10235 -4.79836 33956 ft 448 kts 279°
2026-05-03 22:56 52.11389 -4.89803 33959 ft 448 kts 279°
2026-05-03 22:57 52.12536 -4.99796 33952 ft 450 kts 280°
2026-05-03 22:57 52.14259 -5.09590 33780 ft 454 kts 296°
2026-05-03 22:57 52.15860 -5.14004 33499 ft 453 kts 307°
2026-05-03 22:58 52.17937 -5.17849 33216 ft 452 kts 318°
2026-05-03 22:58 52.20415 -5.20997 32710 ft 452 kts 328°
2026-05-03 22:58 52.23198 -5.23461 31634 ft 458 kts 334°
2026-05-03 22:58 52.26048 -5.25758 30901 ft 455 kts 335°
2026-05-03 22:59 52.28879 -5.28037 30255 ft 452 kts 335°
2026-05-03 22:59 52.31684 -5.30309 29544 ft 448 kts 336°
2026-05-03 22:59 52.34462 -5.32582 28798 ft 445 kts 335°
2026-05-03 22:59 52.37215 -5.34856 28068 ft 441 kts 335°
2026-05-03 23:00 52.39937 -5.37115 27470 ft 435 kts 335°
2026-05-03 23:00 52.42619 -5.39343 26852 ft 430 kts 335°
2026-05-03 23:00 52.45236 -5.41523 26264 ft 425 kts 336°
2026-05-03 23:00 52.47850 -5.43707 25676 ft 419 kts 335°
2026-05-03 23:01 52.50438 -5.45863 25085 ft 415 kts 335°
2026-05-03 23:01 52.53007 -5.47993 24512 ft 412 kts 336°
2026-05-03 23:01 52.55585 -5.50003 23951 ft 407 kts 341°
2026-05-03 23:01 52.58260 -5.51440 23416 ft 403 kts 346°
2026-05-03 23:02 52.60930 -5.52789 22872 ft 399 kts 345°
2026-05-03 23:02 52.63567 -5.54137 22376 ft 396 kts 345°
2026-05-03 23:02 52.66185 -5.55486 21877 ft 392 kts 345°
2026-05-03 23:02 52.68780 -5.56829 21382 ft 389 kts 344°
2026-05-03 23:03 52.71352 -5.58163 20885 ft 386 kts 345°
2026-05-03 23:03 52.73907 -5.59486 20408 ft 383 kts 345°
2026-05-03 23:03 52.76444 -5.60799 19911 ft 381 kts 344°
2026-05-03 23:03 52.78965 -5.62099 19431 ft 378 kts 345°
2026-05-03 23:04 52.81470 -5.63391 18956 ft 375 kts 345°
2026-05-03 23:04 52.83954 -5.64676 18478 ft 373 kts 344°
2026-05-03 23:04 52.86419 -5.65956 17969 ft 370 kts 344°
2026-05-03 23:04 52.88866 -5.67226 17486 ft 367 kts 345°
2026-05-03 23:05 52.91288 -5.68483 17024 ft 363 kts 344°
2026-05-03 23:05 52.93664 -5.69716 16573 ft 361 kts 344°
2026-05-03 23:05 52.96053 -5.70958 16109 ft 358 kts 344°
2026-05-03 23:05 52.98423 -5.72194 15658 ft 356 kts 345°
2026-05-03 23:06 53.00775 -5.73424 15211 ft 352 kts 344°
2026-05-03 23:06 53.03106 -5.74645 14762 ft 350 kts 344°
2026-05-03 23:06 53.05429 -5.75862 14317 ft 349 kts 344°
2026-05-03 23:06 53.07734 -5.77069 13871 ft 346 kts 344°
2026-05-03 23:07 53.10005 -5.78322 13392 ft 343 kts 338°
2026-05-03 23:07 53.12088 -5.80249 12961 ft 344 kts 325°
2026-05-03 23:07 53.13841 -5.82937 12522 ft 343 kts 311°
2026-05-03 23:07 53.15162 -5.86235 12083 ft 342 kts 297°
2026-05-03 23:08 53.16102 -5.89860 11872 ft 343 kts 294°
2026-05-03 23:08 53.17049 -5.93538 11216 ft 345 kts 294°
2026-05-03 23:08 53.17999 -5.97171 10776 ft 339 kts 294°
2026-05-03 23:08 53.18933 -6.00729 10514 ft 329 kts 294°
2026-05-03 23:09 53.19829 -6.04147 10393 ft 315 kts 294°
2026-05-03 23:09 53.20676 -6.07389 10141 ft 297 kts 294°
2026-05-03 23:09 53.21484 -6.10502 9670 ft 287 kts 294°
2026-05-03 23:09 53.22270 -6.13544 9543 ft 288 kts 294°
2026-05-03 23:10 53.23056 -6.16603 9407 ft 287 kts 295°
2026-05-03 23:10 53.23842 -6.19664 9167 ft 288 kts 295°
2026-05-03 23:10 53.24625 -6.22700 8750 ft 289 kts 295°
2026-05-03 23:10 53.25420 -6.25781 8430 ft 286 kts 295°
2026-05-03 23:11 53.26212 -6.28853 7943 ft 290 kts 295°
2026-05-03 23:11 53.27001 -6.31938 7635 ft 287 kts 295°
2026-05-03 23:11 53.27775 -6.34977 7408 ft 281 kts 295°
2026-05-03 23:11 53.28536 -6.37968 7174 ft 279 kts 295°
2026-05-03 23:12 53.29296 -6.40956 6952 ft 279 kts 295°
2026-05-03 23:12 53.30055 -6.43935 6732 ft 278 kts 295°
2026-05-03 23:12 53.30866 -6.46853 6453 ft 274 kts 304°
2026-05-03 23:12 53.32124 -6.49135 5883 ft 264 kts 328°
2026-05-03 23:13 53.33765 -6.50378 5271 ft 257 kts 351°
2026-05-03 23:13 53.35506 -6.50665 4765 ft 247 kts 359°
2026-05-03 23:13 53.37206 -6.50845 4283 ft 242 kts 359°
2026-05-03 23:13 53.38848 -6.51029 3940 ft 231 kts 359°
2026-05-03 23:14 53.40416 -6.51164 3614 ft 221 kts
2026-05-03 23:14 53.41889 -6.50632 3280 ft 214 kts 25°
2026-05-03 23:14 53.43124 -6.49332 3026 ft 203 kts 43°
2026-05-03 23:14 53.43959 -6.47587 2993 ft 183 kts 59°
2026-05-03 23:15 53.44422 -6.45700 2819 ft 171 kts 73°
2026-05-03 23:15 53.44555 -6.43729 2352 ft 173 kts 90°
2026-05-03 23:15 53.44447 -6.41709 1969 ft 174 kts 92°
2026-05-03 23:15 53.44343 -6.39759 1690 ft 158 kts 92°
2026-05-03 23:16 53.44251 -6.38052 1462 ft 138 kts 92°
2026-05-03 23:16 53.44169 -6.36490 1245 ft 133 kts 91°
2026-05-03 23:16 53.44088 -6.34970 1078 ft 132 kts 92°
2026-05-03 23:16 53.44005 -6.33451 916 ft 131 kts 92°
2026-05-03 23:17 53.43925 -6.31947 743 ft 128 kts 91°
2026-05-03 23:17 53.43847 -6.30434 536 ft 128 kts 90°
2026-05-03 23:17 53.43764 -6.28936 385 ft 130 kts 91°
2026-05-03 23:17 53.43682 -6.27439 244 ft 128 kts 92°
2026-05-03 23:18 53.43610 -6.26094 211 ft 99 kts 95°
2026-05-03 23:18 53.43558 -6.25184 211 ft 62 kts 95°
2026-05-03 23:18 53.43524 -6.24627 214 ft 23 kts 103°
2026-05-03 23:18 53.43423 -6.24555 212 ft 18 kts 186°
2026-05-03 23:19 53.43357 -6.24648 214 ft 14 kts 265°
2026-05-03 23:19 53.43367 -6.24824 215 ft 17 kts 275°
2026-05-03 23:19 53.43379 -6.25039 211 ft 20 kts 276°
2026-05-03 23:19 53.43392 -6.25274 214 ft 20 kts 276°
2026-05-03 23:20 53.43404 -6.25511 211 ft 19 kts 274°
2026-05-03 23:20 53.43368 -6.25656 215 ft 13 kts 190°
2026-05-03 23:20 53.43280 -6.25595 214 ft 15 kts 155°
2026-05-03 23:20 53.43177 -6.25520 216 ft 16 kts 157°
2026-05-03 23:21 53.43087 -6.25455 220 ft 14 kts 157°
2026-05-03 23:21 53.43019 -6.25407 213 ft 12 kts 156°
2026-05-03 23:21 53.42942 -6.25350 211 ft 7 kts 156°
2026-05-03 23:21 53.42937 -6.25347 211 ft 1 kts 156°
2026-05-03 23:22 53.42863 -6.25293 215 ft 13 kts 157°
2026-05-03 23:22 53.42772 -6.25228 212 ft 15 kts 157°
2026-05-03 23:22 53.42737 -6.25130 211 ft 11 kts 47°
2026-05-03 23:23 53.42757 -6.25024 211 ft 13 kts 136°
2026-05-03 23:23 53.42674 -6.24933 211 ft 13 kts 136°
2026-05-03 23:23 53.42685 -6.24819 218 ft 11 kts 59°
2026-05-03 23:23 53.42699 -6.24745 211 ft 4 kts 117°
2026-05-03 23:24 53.42675 -6.24714 211 ft 3 kts 147°
2026-05-03 23:24 53.42661 -6.24699 211 ft 1 kts 147°
2026-05-03 23:24 53.42658 -6.24695 211 ft 0 kts 147°